• în Republica Moldova
  • Lista ţărilor
  • Pe 7 zile
  • Temperatura apei
  • Hartă satelitară
  • Meteo pe hartă
  • Widget-uri
  • user-avatar
    Intrare

    Meteo pe oră la Bregenz

    Astăzi, 28 Mai, Duminică

    Timp Temperatura Precipitaţii Vânt Presiune Umiditate
    00:00 +9°C° 0 mm 1 m/s 649 mmHg 90%
    01:00 +9°C° 0 mm 1 m/s 649 mmHg 86%
    02:00 +9°C° 0 mm 1 m/s 649 mmHg 86%
    03:00 +8°C° 0 mm 2 m/s 649 mmHg 85%
    04:00 +8°C° 0 mm 2 m/s 649 mmHg 85%
    05:00 +10°C° 0 mm 2 m/s 650 mmHg 81%
    06:00 +13°C° 0 mm 1 m/s 650 mmHg 77%
    07:00 +15°C° 0 mm 1 m/s 651 mmHg 71%
    08:00 +18°C° 0 mm 1 m/s 652 mmHg 62%
    09:00 +21°C° 0 mm 1 m/s 652 mmHg 52%
    10:00 +21°C° 0 mm 0 m/s 653 mmHg 43%
    11:00 +24°C° 0 mm 1 m/s 653 mmHg 41%
    12:00 +24°C° 0 mm 1 m/s 653 mmHg 38%
    13:00 +25°C° 0 mm 1 m/s 653 mmHg 36%
    14:00 +25°C° 0 mm 1 m/s 653 mmHg 38%
    15:00 +24°C° 0 mm 1 m/s 652 mmHg 40%
    16:00 +24°C° 0 mm 1 m/s 652 mmHg 42%
    17:00 +22°C° 0 mm 1 m/s 652 mmHg 53%
    18:00 +21°C° 0 mm 1 m/s 651 mmHg 65%
    19:00 +19°C° 0 mm 1 m/s 651 mmHg 76%
    20:00 +15°C° 0 mm 1 m/s 650 mmHg 80%
    21:00 +12°C° 0 mm 1 m/s 649 mmHg 85%
    22:00 +9°C° 0 mm 1 m/s 649 mmHg 89%
    23:00 +10°C° 0 mm 1 m/s 649 mmHg 88%

    Mâine, 29 Mai, Luni

    Timp Temperatura Precipitaţii Vânt Presiune Umiditate
    00:00 +10°C° 0 mm 1 m/s 649 mmHg 86%
    01:00 +10°C° 0 mm 2 m/s 649 mmHg 85%
    02:00 +9°C° 0 mm 2 m/s 648 mmHg 85%
    03:00 +9°C° 0 mm 2 m/s 648 mmHg 85%
    04:00 +9°C° 0 mm 2 m/s 648 mmHg 86%
    05:00 +12°C° 0 mm 2 m/s 648 mmHg 81%
    06:00 +14°C° 0 mm 1 m/s 649 mmHg 77%
    07:00 +16°C° 0 mm 1 m/s 649 mmHg 73%
    08:00 +19°C° 0 mm 1 m/s 650 mmHg 64%
    09:00 +21°C° 0 mm 1 m/s 650 mmHg 56%
    10:00 +21°C° 0 mm 0 m/s 650 mmHg 48%
    11:00 +24°C° 0 mm 1 m/s 650 mmHg 46%
    12:00 +24°C° 0 mm 1 m/s 650 mmHg 43%
    13:00 +25°C° 0 mm 1 m/s 650 mmHg 41%
    14:00 +25°C° 0,3 mm 2 m/s 650 mmHg 46%
    15:00 +24°C° 0,3 mm 2 m/s 650 mmHg 50%
    16:00 +24°C° 0,3 mm 2 m/s 649 mmHg 55%
    17:00 +21°C° 0,7 mm 2 m/s 649 mmHg 65%
    18:00 +20°C° 0,7 mm 1 m/s 648 mmHg 75%
    19:00 +19°C° 0,7 mm 1 m/s 648 mmHg 86%
    20:00 +16°C° 1,3 mm 1 m/s 648 mmHg 89%
    21:00 +14°C° 1,3 mm 1 m/s 648 mmHg 91%
    22:00 +13°C° 1,3 mm 2 m/s 648 mmHg 94%
    23:00 +13°C° 0,7 mm 1 m/s 647 mmHg 94%

    Poimâine, 30 Mai, Marţi

    Timp Temperatura Precipitaţii Vânt Presiune Umiditate
    00:00 +13°C° 0,7 mm 1 m/s 647 mmHg 95%
    01:00 +12°C° 0,7 mm 1 m/s 647 mmHg 95%
    02:00 +12°C° 0,5 mm 1 m/s 647 mmHg 95%
    03:00 +12°C° 0,5 mm 1 m/s 647 mmHg 95%
    04:00 +11°C° 0,5 mm 1 m/s 647 mmHg 95%
    05:00 +12°C° 0,2 mm 1 m/s 647 mmHg 93%
    06:00 +13°C° 0,2 mm 0 m/s 648 mmHg 91%
    07:00 +14°C° 0,2 mm 0 m/s 648 mmHg 89%
    08:00 +16°C° 0,4 mm 1 m/s 649 mmHg 83%
    09:00 +18°C° 0,4 mm 1 m/s 649 mmHg 78%
    10:00 +19°C° 0,4 mm 1 m/s 649 mmHg 72%
    11:00 +20°C° 0,6 mm 1 m/s 649 mmHg 70%
    12:00 +20°C° 0,6 mm 1 m/s 649 mmHg 68%
    13:00 +21°C° 0,6 mm 1 m/s 649 mmHg 66%
    14:00 +21°C° 0,8 mm 1 m/s 649 mmHg 67%
    15:00 +21°C° 0,8 mm 1 m/s 649 mmHg 68%
    16:00 +21°C° 0,8 mm 1 m/s 649 mmHg 68%
    17:00 +19°C° 0,8 mm 1 m/s 649 mmHg 76%
    18:00 +18°C° 0,8 mm 1 m/s 649 mmHg 83%
    19:00 +16°C° 0,8 mm 1 m/s 649 mmHg 90%
    20:00 +14°C° 0,6 mm 1 m/s 649 mmHg 92%
    21:00 +13°C° 0,6 mm 1 m/s 649 mmHg 94%
    22:00 +12°C° 0,6 mm 1 m/s 649 mmHg 96%
    23:00 +11°C° 0,1 mm 1 m/s 648 mmHg 96%

    31 Mai, Miercuri

    Timp Temperatura Precipitaţii Vânt Presiune Umiditate
    00:00 +11°C° 0,1 mm 1 m/s 648 mmHg 96%
    01:00 +9°C° 0,1 mm 0 m/s 648 mmHg 96%
    02:00 +9°C° 0 mm 0 m/s 648 mmHg 96%
    03:00 +8°C° 0 mm 0 m/s 648 mmHg 97%
    04:00 +8°C° 0 mm 0 m/s 648 mmHg 97%
    05:00 +10°C° 0 mm 0 m/s 648 mmHg 94%
    06:00 +11°C° 0 mm 0 m/s 649 mmHg 92%
    07:00 +13°C° 0 mm 0 m/s 649 mmHg 89%
    08:00 +14°C° 0,2 mm 0 m/s 650 mmHg 83%
    09:00 +16°C° 0,2 mm 1 m/s 650 mmHg 77%
    10:00 +18°C° 0,2 mm 1 m/s 650 mmHg 71%
    11:00 +18°C° 0,6 mm 1 m/s 650 mmHg 74%
    12:00 +17°C° 0,6 mm 2 m/s 650 mmHg 76%
    13:00 +17°C° 0,6 mm 2 m/s 650 mmHg 78%
    14:00 +17°C° 1,1 mm 2 m/s 650 mmHg 81%
    15:00 +17°C° 1,1 mm 2 m/s 649 mmHg 84%
    16:00 +16°C° 1,1 mm 2 m/s 649 mmHg 87%
    17:00 +15°C° 1,6 mm 2 m/s 649 mmHg 90%
    18:00 +15°C° 1,6 mm 1 m/s 649 mmHg 92%
    19:00 +14°C° 1,6 mm 1 m/s 649 mmHg 95%
    20:00 +13°C° 1,8 mm 1 m/s 648 mmHg 96%
    21:00 +12°C° 1,8 mm 1 m/s 648 mmHg 97%
    22:00 +12°C° 1,8 mm 1 m/s 648 mmHg 98%
    23:00 +11°C° 1,3 mm 1 m/s 648 mmHg 98%

    1 Iunie, Joi

    Timp Temperatura Precipitaţii Vânt Presiune Umiditate
    00:00 +11°C° 1,3 mm 1 m/s 648 mmHg 98%
    01:00 +11°C° 1,3 mm 1 m/s 648 mmHg 98%
    02:00 +11°C° 0,9 mm 1 m/s 648 mmHg 98%
    03:00 +11°C° 0,9 mm 1 m/s 647 mmHg 98%
    04:00 +10°C° 0,9 mm 1 m/s 647 mmHg 98%
    05:00 +11°C° 0,7 mm 1 m/s 647 mmHg 98%
    06:00 +11°C° 0,7 mm 1 m/s 648 mmHg 97%
    07:00 +11°C° 0,7 mm 1 m/s 648 mmHg 97%
    08:00 +11°C° 0,3 mm 1 m/s 648 mmHg 94%
    09:00 +12°C° 0,3 mm 1 m/s 648 mmHg 90%
    10:00 +13°C° 0,3 mm 2 m/s 649 mmHg 87%
    11:00 +14°C° 0,2 mm 2 m/s 649 mmHg 82%
    12:00 +15°C° 0,2 mm 2 m/s 649 mmHg 76%
    13:00 +16°C° 0,2 mm 2 m/s 649 mmHg 70%
    14:00 +16°C° 0,2 mm 2 m/s 649 mmHg 71%
    15:00 +16°C° 0,2 mm 2 m/s 649 mmHg 72%
    16:00 +15°C° 0,2 mm 2 m/s 649 mmHg 73%
    17:00 +15°C° 0,1 mm 2 m/s 649 mmHg 77%
    18:00 +14°C° 0,1 mm 2 m/s 648 mmHg 81%
    19:00 +13°C° 0,1 mm 2 m/s 648 mmHg 86%
    20:00 +10°C° 0 mm 2 m/s 648 mmHg 89%
    21:00 +10°C° 0 mm 1 m/s 648 mmHg 92%
    22:00 +8°C° 0 mm 1 m/s 647 mmHg 96%
    23:00 +7°C° 0 mm 1 m/s 647 mmHg 96%

    2 Iunie, Vineri

    Timp Temperatura Precipitaţii Vânt Presiune Umiditate
    00:00 +6°C° 0 mm 1 m/s 646 mmHg 96%
    01:00 +5°C° 0 mm 1 m/s 646 mmHg 97%
    02:00 +5°C° 0 mm 1 m/s 646 mmHg 97%
    03:00 +4°C° 0 mm 1 m/s 645 mmHg 97%
    04:00 +3°C° 0 mm 1 m/s 645 mmHg 97%
    05:00 +5°C° 0 mm 0 m/s 646 mmHg 92%
    06:00 +8°C° 0 mm 0 m/s 647 mmHg 88%
    07:00 +10°C° 0 mm 0 m/s 648 mmHg 83%
    08:00 +13°C° 0 mm 1 m/s 648 mmHg 74%
    09:00 +15°C° 0 mm 1 m/s 648 mmHg 65%
    10:00 +18°C° 0 mm 1 m/s 649 mmHg 56%
    11:00 +18°C° 0 mm 2 m/s 649 mmHg 53%
    12:00 +19°C° 0 mm 2 m/s 649 mmHg 50%
    13:00 +19°C° 0 mm 2 m/s 649 mmHg 47%
    14:00 +19°C° 0 mm 2 m/s 649 mmHg 49%
    15:00 +19°C° 0 mm 2 m/s 649 mmHg 50%
    16:00 +19°C° 0 mm 2 m/s 649 mmHg 52%
    17:00 +17°C° 0 mm 2 m/s 648 mmHg 60%
    18:00 +16°C° 0 mm 2 m/s 648 mmHg 69%
    19:00 +15°C° 0 mm 2 m/s 648 mmHg 77%
    20:00 +12°C° 0 mm 2 m/s 647 mmHg 83%
    21:00 +10°C° 0 mm 1 m/s 647 mmHg 88%
    22:00 +7°C° 0 mm 1 m/s 646 mmHg 94%
    23:00 +7°C° 0 mm 1 m/s 646 mmHg 93%
    Arată mai mult